User: anonymous   Login
Location: �chenoz-la-M�line
(47.6009°N, 6.1354°E)
Time: 16:31:48
(UTC+00:00)
Language:

FENGYUN 3A - Orbit

View from above orbital plane
View from above orbital plane
View from above satellite
View from above satellite

Ground track
Ground track

The orbit data is extracted from the following two-line orbital elements,

1 32958U 08026A   21105.22133543 -.00000003  00000-0  18335-4 0  9993
2 32958  98.4452  81.8817 0008709 174.9514 185.1752 14.18652735667616
Epoch (UTC): 15 April 2021 05:18:43
Eccentricity: 0.0008709
inclination: 98.4452°
perigee height: 823 km
apogee height: 836 km
right ascension of ascending node: 81.8817°
argument of perigee: 174.9514°
revolutions per day: 14.18652735
mean anomaly at epoch: 185.1752°
orbit number at epoch: 66761

The dashed part of the orbit path shows where the satellite is in the earth's shadow,  

DLR